[[{"header":{"parameterUnit":"m.s-1","parameterCategory":1,"la1":30.2991,"la2":30.254,"lo1":-89.0895,"lo2":-89.0444,"dy":0.0017,"dx":0.0017,"nx":28,"ny":28,"refTime":"2023-11-06T03:00:00:Z","depth":0,"parameterNumber":2,"parameterNumberName":"U-component_of_WINDS"},"data":[0,0,0,0,0,0,0,0,0,0,0,0,0,0,0,0,0,0,0,0,0,0,0,0,0,0,0,0,0,0,0,0,0,0,0,0,0,0,0,0,0,0,0,0,0,0,0,0,0,0,0,0,0,0,0,0,0,0,0.5471,0.5471,0,0.5473,0.5473,0.5473,0.5448,0.5447,0.5446,0.5446,0.5447,0.5448,0.5449,0,0,0,0,0,0,0,0,0,0,0,0,0,0.5446,0.5447,0.5471,0.5471,0.5471,0.5473,0.5473,0.5473,0.5448,0.5447,0.5446,0.5446,0.5447,0.5448,0.5449,0,0,0,0,0,0,0,0,0,0,0,0,0,0.5453,0.5447,0.5471,0.5459,0.5458,0.5473,0.5473,0.5473,0.5448,0.5447,0.5446,0.5445,0.5447,0.5448,0.5449,0.5476,0,0,0.5452,0.5453,0,0,0,0,0,0,0,0,0.5453,0.5454,0.546,0.546,0.5458,0.5459,0.5465,0.5474,0.5448,0.5452,0.5446,0.5445,0.5452,0.5453,0.5455,0.5476,0.5476,0.5452,0.5453,0.5453,0.5454,0,0,0,0,0,0,0,0.5453,0.5454,0.5472,0.5461,0.5459,0.5453,0.5453,0.5467,0.5458,0.5451,0.545,0.545,0.5451,0.5454,0.5455,0.5476,0.5452,0.5453,0.5454,0.5454,0.5523,0.5524,0,0,0,0,0,0,0.5454,0.5454,0.5472,0.5472,0.5453,0.5455,0.5455,0.546,0.5458,0.5456,0.5451,0.5449,0.5453,0.5454,0.5455,0.5489,0.5453,0.5454,0.5455,0.5522,0.5523,0.5524,0,0,0,0,0,0,0.5453,0.5455,0.5472,0.5462,0.5464,0.5456,0.5462,0.5461,0.5464,0.5457,0.5456,0.5456,0.5452,0.5454,0.5472,0.5489,0.5455,0.5456,0.552,0.5522,0.5524,0.5556,0,0,0,0,0,0,0.5453,0.5455,0.5465,0.5463,0.5465,0.5488,0.5463,0.5461,0.5466,0.5463,0.5461,0.546,0.5452,0.5471,0.5473,0.549,0.5456,0.5519,0.5521,0.5523,0.5553,0.5558,0.5563,0,0,0,0,0,0.5452,0.5473,0.5466,0.5468,0.5477,0.5489,0.549,0.548,0.5467,0.5477,0.5474,0.546,0.5486,0.5473,0.5475,0.5492,0.5518,0.552,0.5523,0.5551,0.5557,0.5563,0,0,0,0,0,0,0.5477,0.5473,0.5464,0.5486,0.5488,0.5485,0.5497,0.5487,0.5493,0.549,0.5477,0.5477,0.5498,0.5497,0.5481,0.552,0.55,0.5503,0.552,0.5526,0.5531,0.5531,0.5457,0,0,0,0,0,0.5485,0.5495,0.5491,0.551,0.5512,0.5505,0.5509,0.5502,0.5504,0.5505,0.5502,0.5504,0.5513,0.5519,0.5527,0.5553,0.5553,0.5566,0.5571,0.5575,0.5578,0.5594,0.5601,0.5533,0.5533,0.5533,0,0,0.5502,0.5501,0.5508,0.5516,0.5516,0.5528,0.5505,0.5518,0.5527,0.5506,0.5524,0.5523,0.5524,0.5547,0.5557,0.5547,0.5597,0.5578,0.5582,0.5583,0.5598,0.5604,0.561,0.5535,0.5535,0.5534,0,0,0.5539,0.5538,0.5556,0.5558,0.556,0.5555,0.5559,0.5558,0.5557,0.5574,0.556,0.557,0.5585,0.5588,0.5592,0.5633,0.5621,0.5635,0.5661,0.5677,0.5682,0.5687,0.5704,0.571,0.5639,0.5639,0.5639,0,0.5559,0.5576,0.5566,0.558,0.5585,0.5568,0.5586,0.5588,0.5593,0.5597,0.5585,0.5606,0.5606,0.563,0.5641,0.5643,0.5649,0.5636,0.5682,0.5687,0.5691,0.5707,0.5713,0.564,0.564,0.564,0.564,0,0.5602,0.5614,0.5628,0.5635,0.5641,0.5657,0.565,0.5657,0.565,0.5647,0.5666,0.5666,0.5675,0.568,0.5672,0.5704,0.5698,0.5685,0.5664,0.57,0.5715,0.572,0.5643,0.5642,0.5642,0.5641,0,0,0.5654,0.5656,0.5661,0.5665,0.5668,0.5677,0.5693,0.5703,0.5711,0.5714,0.5729,0.5744,0.5732,0.5736,0.5729,0.5742,0.5778,0.5728,0.5728,0.5739,0.5816,0.5828,0.5835,0.577,0.5771,0.5772,0.5817,0,0.5691,0.572,0.5712,0.5741,0.5753,0.5738,0.5753,0.5756,0.5754,0.5765,0.5763,0.5774,0.5757,0.576,0.5773,0.5771,0.5794,0.5767,0.5785,0.5786,0.5787,0.5842,0.5853,0.5895,0.5822,0.5823,0.5824,0,0.5738,0.5746,0.5777,0.578,0.5785,0.5798,0.5807,0.5817,0.5822,0.5819,0.5825,0.5816,0.5833,0.5813,0.5837,0.582,0.5827,0.5827,0.5829,0.5831,0.5808,0.5847,0.5908,0.5915,0.5833,0.5832,0.5831,0,0.5776,0.5794,0.5815,0.5818,0.5822,0.5832,0.5834,0.5837,0.5844,0.5852,0.5857,0.5867,0.5873,0.5881,0.5875,0.586,0.5902,0.588,0.5902,0.5902,0.5912,0.5912,0.5977,0.5914,0.5914,0.5914,0.5913,0,0.5819,0.5839,0.5832,0.5845,0.5868,0.5859,0.5881,0.5881,0.5885,0.5899,0.5886,0.5899,0.589,0.5903,0.5898,0.5921,0.5923,0.5923,0.5922,0.5925,0.5925,0.593,0.5928,0.5915,0.5915,0.5915,0.5914,0,0.5865,0.5861,0.5883,0.5886,0.5887,0.5903,0.5905,0.5918,0.5916,0.5934,0.5938,0.5934,0.5949,0.5944,0.5959,0.5956,0.5986,0.598,0.5985,0.5984,0.6007,0.6006,0.6078,0.6088,0.6018,0.6018,0.6019,0,0.5893,0.5909,0.5913,0.5922,0.5925,0.5939,0.5947,0.5939,0.5948,0.5956,0.5968,0.5982,0.5993,0.6017,0.6017,0.6029,0.6024,0.6049,0.6026,0.603,0.6027,0.6027,0.603,0.6054,0.6055,0.6055,0.6056,0,0.5945,0.5943,0.5955,0.5967,0.5977,0.5986,0.5994,0.6002,0.5995,0.6006,0.6021,0.603,0.6047,0.6061,0.6073,0.6075,0.6066,0.6063,0.6069,0.6074,0.6077,0.6078,0.5999,0.6062,0.6061,0.6061,0.606,0.606,0.5985,0.5998,0.6005,0.6019,0.6025,0.6033,0.6046,0.6046,0.6059,0.6073,0.6068,0.6086,0.6093,0.6108,0.6112,0.6127,0.6118,0.6126,0.6128,0.6131,0.6135,0.6073,0.6129,0.6129,0.6129,0.6128,0.6128,0,0.6038,0.6042,0.6055,0.6067,0.6079,0.6069,0.6078,0.6089,0.6105,0.6112,0.6124,0.6143,0.6158,0.6159,0.6174,0.6186,0.6182,0.619,0.619,0.6191,0.6141,0.6136,0.6193,0.6193,0.6193,0.6193,0.6193,0.6193,0.6067,0.6091,0.609,0.6117,0.6121,0.6139,0.6146,0.6154,0.616,0.6182,0.6195,0.6196,0.6202,0.6217,0.623,0.6231,0.6237,0.6248,0.6246,0.62,0.6194,0.6188,0.6183,0.6249,0.6249,0.6295,0.6295,0.6295]},{"header":{"parameterUnit":"m.s-1","parameterCategory":1,"la1":30.2991,"la2":30.254,"lo1":-89.0895,"lo2":-89.0444,"dy":0.0017,"dx":0.0017,"nx":28,"ny":28,"refTime":"2023-11-06T03:00:00:Z","depth":0,"parameterNumber":3,"parameterNumberName":"V-component_of_WINDS"},"data":[0,0,0,0,0,0,0,0,0,0,0,0,0,0,0,0,0,0,0,0,0,0,0,0,0,0,0,0,0,0,0,0,0,0,0,0,0,0,0,0,0,0,0,0,0,0,0,0,0,0,0,0,0,0,0,0,0,0,-1.2907,-1.2907,0,-1.2902,-1.2902,-1.2902,-1.2883,-1.2882,-1.2882,-1.2882,-1.2876,-1.2877,-1.2877,0,0,0,0,0,0,0,0,0,0,0,0,0,-1.29,-1.29,-1.2907,-1.2907,-1.2907,-1.2902,-1.2902,-1.2902,-1.2883,-1.2882,-1.2882,-1.2881,-1.2876,-1.2877,-1.2877,0,0,0,0,0,0,0,0,0,0,0,0,0,-1.29,-1.29,-1.2907,-1.2897,-1.2896,-1.2902,-1.2902,-1.2902,-1.2883,-1.2882,-1.2882,-1.2881,-1.2876,-1.2877,-1.2877,-1.2892,0,0,-1.2878,-1.2878,0,0,0,0,0,0,0,0,-1.29,-1.29,-1.2898,-1.2897,-1.2896,-1.2892,-1.2897,-1.2899,-1.2883,-1.2888,-1.2882,-1.2881,-1.2882,-1.2882,-1.2883,-1.2892,-1.2892,-1.2878,-1.2879,-1.2879,-1.2879,0,0,0,0,0,0,0,-1.29,-1.29,-1.2905,-1.2898,-1.2897,-1.2892,-1.2892,-1.2898,-1.2889,-1.2887,-1.2886,-1.2886,-1.2882,-1.2882,-1.2882,-1.2892,-1.2878,-1.2879,-1.2879,-1.2879,-1.2913,-1.2914,0,0,0,0,0,0,-1.2901,-1.29,-1.2905,-1.2905,-1.2897,-1.2893,-1.2892,-1.2894,-1.2889,-1.2887,-1.2886,-1.2885,-1.2882,-1.2882,-1.2882,-1.2899,-1.2879,-1.2879,-1.2879,-1.2912,-1.2913,-1.2914,0,0,0,0,0,0,-1.2901,-1.2902,-1.2905,-1.2902,-1.2902,-1.2894,-1.2896,-1.2895,-1.2895,-1.2888,-1.2886,-1.2889,-1.2881,-1.2882,-1.289,-1.2899,-1.2879,-1.288,-1.2912,-1.2913,-1.2914,-1.2934,0,0,0,0,0,0,-1.2901,-1.2902,-1.2908,-1.2902,-1.2902,-1.2913,-1.2897,-1.2895,-1.2896,-1.2894,-1.2889,-1.2888,-1.2881,-1.2889,-1.289,-1.2899,-1.288,-1.2911,-1.2912,-1.2913,-1.2932,-1.2935,-1.2938,0,0,0,0,0,-1.2901,-1.2914,-1.2908,-1.2909,-1.291,-1.2914,-1.2914,-1.2905,-1.2897,-1.2902,-1.2897,-1.2888,-1.2898,-1.289,-1.2891,-1.29,-1.291,-1.2912,-1.2913,-1.2931,-1.2935,-1.2938,0,0,0,0,0,0,-1.2921,-1.2913,-1.2907,-1.2918,-1.2917,-1.2911,-1.2917,-1.2909,-1.291,-1.2909,-1.2898,-1.2897,-1.2907,-1.2904,-1.2896,-1.2914,-1.2902,-1.2904,-1.2915,-1.2919,-1.2922,-1.2922,-1.288,0,0,0,0,0,-1.2926,-1.293,-1.2923,-1.2934,-1.2934,-1.2926,-1.2927,-1.2921,-1.2919,-1.2918,-1.2914,-1.2913,-1.2915,-1.2917,-1.2919,-1.2932,-1.293,-1.2938,-1.2941,-1.2944,-1.2945,-1.2951,-1.2954,-1.2919,-1.2919,-1.2919,0,0,-1.2938,-1.2934,-1.2938,-1.2938,-1.2936,-1.294,-1.2925,-1.2931,-1.2934,-1.2919,-1.2926,-1.2923,-1.2921,-1.2931,-1.2936,-1.293,-1.2954,-1.2945,-1.2947,-1.2947,-1.2953,-1.2956,-1.2959,-1.292,-1.292,-1.292,0,0,-1.2961,-1.2959,-1.2968,-1.2966,-1.2963,-1.2958,-1.296,-1.2955,-1.2952,-1.296,-1.2948,-1.2952,-1.2957,-1.2955,-1.2955,-1.2978,-1.2969,-1.2979,-1.2993,-1.2999,-1.3002,-1.3004,-1.3012,-1.3015,-1.298,-1.298,-1.298,0,-1.2976,-1.2982,-1.2973,-1.2979,-1.2979,-1.2966,-1.2974,-1.2973,-1.2972,-1.2972,-1.2965,-1.297,-1.2968,-1.2978,-1.2983,-1.2984,-1.2985,-1.2979,-1.3002,-1.3005,-1.3007,-1.3014,-1.3017,-1.2982,-1.2981,-1.2981,-1.2981,0,-1.3,-1.3005,-1.3012,-1.301,-1.3011,-1.3018,-1.301,-1.3012,-1.3006,-1.3001,-1.3008,-1.3005,-1.3006,-1.3008,-1.3002,-1.3016,-1.3013,-1.3004,-1.2992,-1.3012,-1.3018,-1.3021,-1.2983,-1.2983,-1.2982,-1.2982,0,0,-1.3036,-1.3029,-1.3031,-1.303,-1.3026,-1.3029,-1.3036,-1.3036,-1.3038,-1.3038,-1.3042,-1.3047,-1.3039,-1.3039,-1.3032,-1.3037,-1.3055,-1.3028,-1.3028,-1.3033,-1.307,-1.3076,-1.3079,-1.3049,-1.305,-1.305,-1.307,0,-1.3057,-1.3068,-1.306,-1.3071,-1.3075,-1.3062,-1.3068,-1.3066,-1.3062,-1.3064,-1.3059,-1.3062,-1.3052,-1.3052,-1.3057,-1.3052,-1.3062,-1.305,-1.3053,-1.3053,-1.3054,-1.3083,-1.3089,-1.3108,-1.3073,-1.3073,-1.3074,0,-1.3084,-1.3084,-1.3096,-1.3091,-1.3092,-1.3097,-1.3097,-1.3099,-1.3097,-1.3093,-1.3093,-1.3085,-1.3091,-1.3079,-1.3087,-1.3079,-1.3079,-1.3077,-1.3078,-1.3077,-1.3064,-1.3083,-1.3114,-1.3117,-1.3078,-1.3077,-1.3077,0,-1.3108,-1.3111,-1.3118,-1.3118,-1.3112,-1.3116,-1.3114,-1.311,-1.3111,-1.3111,-1.3111,-1.3112,-1.3112,-1.3113,-1.3105,-1.3097,-1.3113,-1.3101,-1.311,-1.311,-1.3114,-1.3114,-1.3145,-1.3115,-1.3115,-1.3115,-1.3115,0,-1.3132,-1.314,-1.3129,-1.3133,-1.3141,-1.3132,-1.314,-1.3137,-1.3134,-1.3138,-1.3127,-1.3131,-1.3121,-1.3123,-1.3117,-1.3124,-1.3124,-1.3121,-1.3119,-1.3122,-1.3122,-1.3122,-1.312,-1.3116,-1.3116,-1.3116,-1.3116,0,-1.316,-1.3153,-1.316,-1.3154,-1.3152,-1.3159,-1.3153,-1.3157,-1.3152,-1.3157,-1.3157,-1.315,-1.3152,-1.3144,-1.3146,-1.3142,-1.3151,-1.3148,-1.3152,-1.3151,-1.316,-1.3159,-1.3192,-1.3196,-1.3164,-1.3165,-1.3165,0,-1.3176,-1.3181,-1.3176,-1.3177,-1.3175,-1.3178,-1.3179,-1.317,-1.3171,-1.3168,-1.3172,-1.3174,-1.3174,-1.3179,-1.3173,-1.3174,-1.317,-1.3181,-1.317,-1.3172,-1.3169,-1.3169,-1.3169,-1.3184,-1.3184,-1.3184,-1.3185,0,-1.3204,-1.32,-1.3202,-1.3202,-1.3203,-1.3203,-1.3201,-1.3203,-1.3194,-1.3195,-1.3198,-1.3198,-1.3199,-1.32,-1.32,-1.3198,-1.319,-1.3188,-1.319,-1.3193,-1.3195,-1.3193,-1.3158,-1.3188,-1.3187,-1.3187,-1.3187,-1.3187,-1.3226,-1.323,-1.3227,-1.3228,-1.3227,-1.3226,-1.3229,-1.3224,-1.3226,-1.3226,-1.3221,-1.3224,-1.3221,-1.322,-1.3218,-1.322,-1.3215,-1.3218,-1.3219,-1.3219,-1.3221,-1.3195,-1.322,-1.322,-1.322,-1.322,-1.322,0,-1.3253,-1.3251,-1.3252,-1.3251,-1.3252,-1.3245,-1.3243,-1.3245,-1.3247,-1.3245,-1.3246,-1.3249,-1.325,-1.3245,-1.3245,-1.3248,-1.3244,-1.3248,-1.3248,-1.3247,-1.3226,-1.3224,-1.3251,-1.3251,-1.3251,-1.3251,-1.3251,-1.3251,-1.3268,-1.3274,-1.327,-1.3275,-1.3272,-1.3275,-1.3275,-1.3274,-1.3272,-1.3275,-1.3276,-1.3273,-1.327,-1.327,-1.3271,-1.3269,-1.3269,-1.3275,-1.3272,-1.3252,-1.3249,-1.3246,-1.3244,-1.3275,-1.3275,-1.3293,-1.3293,-1.3293]}]]